Hourly Data Report for October 01, 2016

All times are specified in Local Standard Time (LST). Add 1 hour to adjust for Daylight Saving Time where and when it is observed.

OTTAWA INTL A
ONTARIO

45°19'00.000" N
75°40'00.000" W
114.90 m
6106001
71628
YOW

Download Data

Hourly Data (October 2016)
Hourly Data Report for October 1, 2016
Temp Definition
°C
Dew Point Temp Definition
°C
Rel Hum Definition
%
Wind Dir Definition
10's deg

Wind Spd Definition
km/h
Visibility Definition
km
Stn Press Definition
kPa
Hmdx Definition


Wind Chill Definition


Weather Definition


TIME
00:00 Legend Double Dagger 12.6 6.7 67 6 12 24.1 101.38     LegendNANA
01:00 Legend Double Dagger 12.3 6.8 69 5 14 24.1 101.35     Mostly Cloudy
02:00 Legend Double Dagger 12.3 6.8 69 7 12 24.1 101.31     LegendNANA
03:00 Legend Double Dagger 11.6 7.4 75 5 15 24.1 101.27     LegendNANA
04:00 Legend Double Dagger 11.6 7.6 76 6 13 24.1 101.26     Mostly Cloudy
05:00 Legend Double Dagger 11.0 7.7 80 6 11 24.1 101.26     LegendNANA
06:00 Legend Double Dagger 10.9 7.6 80 6 17 24.1 101.22     LegendNANA
07:00 Legend Double Dagger 11.5 7.8 78 7 14 24.1 101.23     Mostly Cloudy
08:00 Legend Double Dagger 12.4 7.9 74 7 16 24.1 101.24     LegendNANA
09:00 Legend Double Dagger 13.1 8.2 72 8 19 24.1 101.24     LegendNANA
10:00 Legend Double Dagger 14.3 8.3 67 7 19 24.1 101.21     Mostly Cloudy
11:00 Legend Double Dagger 15.5 8.6 63 7 15 24.1 101.16     LegendNANA
12:00 Legend Double Dagger 16.4 8.7 60 7 19 24.1 101.10     LegendNANA
13:00 Legend Double Dagger 16.7 9.0 60 5 17 24.1 101.03     Mostly Cloudy
14:00 Legend Double Dagger 17.3 9.1 58 7 19 24.1 100.96     LegendNANA
15:00 Legend Double Dagger 16.5 8.5 59 7 23 24.1 100.92     LegendNANA
16:00 Legend Double Dagger 15.9 8.2 60 6 17 24.1 100.88     Cloudy
17:00 Legend Double Dagger 15.6 8.4 62 6 14 24.1 100.85     LegendNANA
18:00 Legend Double Dagger 15.1 8.2 63 5 17 24.1 100.78     LegendNANA
19:00 Legend Double Dagger 15.0 8.3 64 7 18 24.1 100.77     Cloudy
20:00 Legend Double Dagger 14.6 9.5 71 7 16 24.1 100.75     LegendNANA
21:00 Legend Double Dagger 14.0 9.7 75 7 15 24.1 100.70     LegendNANA
22:00 Legend Double Dagger 13.5 10.0 79 7 18 24.1 100.64     Cloudy
23:00 Legend Double Dagger 13.3 10.5 83 8 9 24.1 100.68     LegendNANA

Notes on Data Quality.

Legend

  • E = Estimated
  • M = Missing
  • NA = Not Available
  • ‡ = Partner data that is not subject to review by the National Climate Archives
Date modified: